Everett, WA

11:24 AM PST on December 08, 2019 (GMT -0800)
Snohomish County

Weather History for KPAE - July, 2019

Change the Weather History Date:

Tuesday, July 30, 2019

  Actual Average Record
Temperature  
Mean Temperature 64 °F -  
Max Temperature 72 °F 74 °F 89 °F (2003)
Min Temperature 57 °F 54 °F 47 °F (1969)
Degree Days  
Heating Degree Days 1    
Growing Degree Days 14 (Base 50)    
Moisture  
Dew Point 51 °F    
Average Humidity 69    
Maximum Humidity 83    
Minimum Humidity 42    
Precipitation  
Precipitation 0.00 in - - ()
Sea Level Pressure  
Sea Level Pressure 30.04 in    
Wind  
Wind Speed 6 mph (WSW)    
Max Wind Speed 12 mph    
Max Gust Speed 18 mph    
Visibility 10 miles    
Events      
Averages and records for this station are not official NWS values.
T = Trace of Precipitation, MM = Missing Value Source: NWS Daily Summary

Daily Weather History Graph

Daily Weather History Graph

Search for Another Location

Airport or City:

Astronomy

Jul. 30, 2019 Rise Set
Actual Time 5:42 AM PDT 8:47 PM PDT
Civil Twilight 5:06 AM PDT 9:23 PM PDT
Nautical Twilight 4:18 AM PDT 10:11 PM PDT
Astronomical Twilight 3:19 AM PDT 11:09 PM PDT
Moon 3:50 AM PDT (7/30) 8:02 PM PDT (7/30)
Length of Visible Light 16h 17m
Length of Day
15h 04m
Waning Crescent, 3% of the Moon is Illuminated
Jul 30
Waning Crescent
Jul 31
New
Aug 7
First Quarter
Aug 15
Full
Aug 23
Last Quarter

Hourly Weather History & Observations

Time (PDT) Temp. Dew Point Humidity Pressure Visibility Wind Dir Wind Speed Gust Speed Precip Events Conditions
12:53 AM 57.0 °F 52.0 °F 83% 30.01 in 10.0 mi North 5.8 mph - N/A   Clear
1:53 AM 57.0 °F 52.0 °F 83% 30.01 in 10.0 mi NNE 5.8 mph - N/A   Clear
2:39 AM 57.0 °F 52.0 °F 83% 30.02 in 10.0 mi Variable 3.5 mph - N/A   Mostly Cloudy
2:53 AM 57.9 °F 52.0 °F 81% 30.02 in 10.0 mi ENE 4.6 mph - N/A   Overcast
3:53 AM 57.9 °F 52.0 °F 81% 30.03 in 10.0 mi ESE 3.5 mph - N/A   Overcast
4:53 AM 57.0 °F 52.0 °F 83% 30.03 in 10.0 mi East 4.6 mph - N/A   Overcast
5:53 AM 57.9 °F 52.0 °F 81% 30.04 in 10.0 mi Calm Calm - N/A   Overcast
6:06 AM 57.9 °F 52.0 °F 81% 30.05 in 10.0 mi SSE 4.6 mph - N/A   Overcast
6:53 AM 57.9 °F 52.0 °F 81% 30.04 in 10.0 mi SSE 5.8 mph - N/A   Overcast
7:30 AM 57.9 °F 52.0 °F 81% 30.05 in 10.0 mi South 6.9 mph - N/A   Overcast
7:53 AM 59.0 °F 52.0 °F 78% 30.06 in 10.0 mi SSE 9.2 mph - N/A   Overcast
8:53 AM 61.0 °F 51.1 °F 70% 30.06 in 10.0 mi South 6.9 mph - N/A   Overcast
9:53 AM 61.0 °F 50.0 °F 67% 30.06 in 10.0 mi South 11.5 mph - N/A   Overcast
10:53 AM 61.0 °F 51.1 °F 70% 30.08 in 10.0 mi SW 10.4 mph - N/A   Overcast
11:53 AM 62.1 °F 51.1 °F 67% 30.08 in 10.0 mi WSW 10.4 mph - N/A   Mostly Cloudy
12:53 PM 64.9 °F 51.1 °F 61% 30.07 in 10.0 mi SW 9.2 mph - N/A   Mostly Cloudy
1:01 PM 66.0 °F 51.1 °F 59% 30.07 in 10.0 mi SW 8.1 mph 18.4 mph N/A   Scattered Clouds
1:53 PM 66.9 °F 50.0 °F 54% 30.07 in 10.0 mi South 8.1 mph - N/A   Clear
2:53 PM 68.0 °F 51.1 °F 55% 30.06 in 10.0 mi West 6.9 mph - N/A   Clear
3:53 PM 69.1 °F 51.1 °F 53% 30.05 in 10.0 mi West 9.2 mph - N/A   Clear
4:53 PM 71.1 °F 50.0 °F 47% 30.04 in 10.0 mi West 6.9 mph - N/A   Clear
5:53 PM 71.1 °F 46.9 °F 42% 30.03 in 10.0 mi WNW 6.9 mph - N/A   Clear
6:53 PM 71.1 °F 48.0 °F 44% 30.02 in 10.0 mi North 4.6 mph - N/A   Clear
7:53 PM 69.1 °F 48.9 °F 49% 30.02 in 10.0 mi NNE 3.5 mph - N/A   Clear
8:53 PM 64.0 °F 53.1 °F 67% 30.03 in 10.0 mi North 4.6 mph - N/A   Clear
9:53 PM 62.1 °F 52.0 °F 70% 30.04 in 10.0 mi North 6.9 mph - N/A   Clear
10:53 PM 60.1 °F 53.1 °F 78% 30.04 in 10.0 mi North 4.6 mph - N/A   Clear
11:53 PM 60.1 °F 53.1 °F 78% 30.04 in 10.0 mi North 4.6 mph - N/A   Scattered Clouds